Regional Weather Roundup
Issued by NWS Grand Forks, ND

Home | Current Version | Previous Version | Graphics & Text | Print | Product List | Glossary On
Versions: 1 2 3 4 5 6 7 8 9 10 11 12 13 14 15 16 17 18 19 20 21 22 23 24 25 26 27 28 29 30 31 32 33 34 35 36 37 38 39 40 41 42 43 44 45 46 47 48 49 50
000
ASUS43 KFGF 242010
RWRFGF
PRAIRIE TO PINES  WEATHER ROUNDUP
NATIONAL WEATHER SERVICE EASTERN NORTH DAKOTA/GRAND FORKS ND
300 PM CDT THU JUL 24 2014

 **SATELLITE DATA USED TO AUGMENT SKY COVER AT AUTOMATED STATIONS**
 *****  WEATHER ACROSS EASTERN NORTH DAKOTA  *****

CITY           SKY/WX    TMP DP  RH WIND       PRES   REMARKS
GRAND FORKS    PTSUNNY   77  61  57 S17G23    29.88R
GRAND FRKS AFB PTSUNNY   76  62  60 SE16G24   29.89R
GRAND FRKS NWS   N/A     75 N/A N/A S18         N/A
DEVILS LAKE    SUNNY     75  61  60 S15G23    29.86R
FARGO          CLOUDY    73  60  63 SE13      29.90F
WAHPETON ARPT  CLOUDY    68  59  73 S25G36    29.88R
$$

 ***** WEATHER ACROSS CENTRAL AND WESTERN NORTH DAKOTA  *****

CITY           SKY/WX    TMP DP  RH WIND       PRES   REMARKS
BISMARCK       CLOUDY    79  63  57 SE21G28   29.81F
MINOT          SUNNY     80  64  58 SE14      29.78S
JAMESTOWN      MOSUNNY   76  62  62 SE18G28   29.85F
MINOT AFB      MOSUNNY   80  68  66 SE14      29.78S
GARRISON         N/A     74  64  71 S14G24    29.82R
WILLISTON      CLOUDY    83  64  52 SE18G31   29.69F
DICKINSON      PTSUNNY   79  66  64 E12       29.79S
HETTINGER      SUNNY     84  66  54 SE14G22   29.78F
$$

 *****  OTHER AIRPORT OBSERVATIONS IN OUR AREA  *****

CITY           SKY/WX    TMP DP  RH WIND       PRES   REMARKS
WALHALLA         N/A     72  66  83 CALM        N/A
GRAFTON AIRPOR FAIR      77  63  61 S16G23    29.90S
VALLEY CITY AR   N/A     73  63  68 S14G24    29.87F
CANDO          FAIR      75  63  64 SE17      29.87F
CAVALIER APRT  FAIR      73  63  68 SE6       29.91R
GWINNER        CLEAR     73  63  68 SE25G36   29.88F
ROLLA          FAIR      72  64  78 SE12      29.88F
 ***** THE ABOVE OBSERVATIONS ARE NON NWS ARE NOT QUALITY
       CONTROLLED AND MAY MIS-REPORT RAIN FOR SNOW...
$$

  *****  WEATHER ACROSS NORTHERN MINNESOTA  *****

CITY           SKY/WX    TMP DP  RH WIND       PRES   REMARKS
FLAG ISLAND    PTSUNNY   72  55  56 E5        29.92F
WARROAD        PTSUNNY   72  63  73 E10       29.92F
ROSEAU         PTSUNNY   73  64  73 E6        29.92S
HALLOCK        CLOUDY    75  63  64 SE7       29.91S
THF RVR FALLS  CLOUDY    73  61  64 SE16G24   29.90R
BAUDETTE       PTSUNNY   76  59  55 E8        29.95F
WASKISH        PTSUNNY   75  61  60 CALM      29.95F
CROOKSTON      CLOUDY    75  61  60 S20G30    29.89R
$$
  *****  WEATHER ACROSS CENTRAL AND WEST MINNESOTA  *****

CITY           SKY/WX    TMP DP  RH WIND       PRES   REMARKS
FOSSTON        CLOUDY    73  61  64 SE13      29.92R
BEMIDJI        CLOUDY    73  58  59 SE15      29.95F
PARK RAPIDS    CLOUDY    73  55  53 SE12      29.96F
ELBOW LAKE     LGT RAIN  62  60  92 SE38G49   29.71F
WADENA         CLOUDY    66  55  68 SE20G25   29.90F
DETROIT LAKES  CLOUDY    70  55  60 SE13G23   29.92F
MOORHEAD       CLOUDY    72  63  73 S8        29.91R
FERGUS FALLS   CLOUDY    64  57  77 SE24G36   29.79F
MORRIS MN      LGT RAIN  64  63  94 NE13      30.01F
STAPLES        CLOUDY    72  54  53 S14G22    29.94F
$$
  *****  WEATHER ELSEWHERE ACROSS MINNESOTA  *****

CITY           SKY/WX    TMP DP  RH WIND       PRES   REMARKS
DULUTH         PTSUNNY   76  54  46 SW10      30.05S
INTRNTL FALLS  PTSUNNY   75  53  46 SE6       29.98F
ELY            MOSUNNY   75  52  43 SW10      30.04F
CLOQUET        PTSUNNY   77  50  38 SW9G17    30.05F
WHEATON        CLOUDY    63  61  94 SE23G29   29.90F
BRAINERD       CLOUDY    74  52  46 SW10      30.06S
HIBBING        PTSUNNY   77  51  40 W6        30.03F
ALEXANDRIA     RAIN      64  61  90 SE12      30.08F FOG
SAINT CLOUD    CLOUDY    80  54  40 W9        30.10R
MINNEAPOLIS    PTSUNNY   81  54  39 S9        30.06R
$$

  *****  WEATHER ACROSS SOUTH DAKOTA  *****

CITY           SKY/WX    TMP DP  RH WIND       PRES   REMARKS
SIOUX FALLS    PTSUNNY   75  63  66 SE21G29   29.96R
BROOKINGS      NOT AVBL
WATERTOWN      CLOUDY    64  61  90 SE17G26   29.97F
HURON          PTSUNNY   78  66  66 E20G28    29.89R
SISSETON         N/A     69  66  90 S21G30    29.90F
ABERDEEN       MOSUNNY   76  63  64 SE23G35   29.86F
MITCHELL       MOSUNNY   85  67  54 S20G30    29.87S
PIERRE         SUNNY     95  67  39 SE21      29.71F HX  99
MOBRIDGE       PTSUNNY   82  67  60 S20G26    29.76F
RAPID CITY     PTSUNNY   91  67  44 CALM      29.80S HX  94
$$

  *****  SOME WEATHER IN NEARBY STATES *****

CITY           SKY/WX    TMP DP  RH WIND       PRES   REMARKS
GLASGOW MT     SUNNY     91  58  32 S13G22    29.68F HX  90
GREAT FALLS MT CLOUDY    70  41  34 W25G41    29.94R
CHEYENNE WY    MOSUNNY   90  47  22 W25G38    30.13F
SCOTTSBLUFF NE PTSUNNY  102  51  18 NW10      29.90F HX  99
OMAHA NE       MOSUNNY   83  60  45 SE18G25   30.01F
DES MOINES IA  CLOUDY    80  58  46 S10       30.08S
DAVENPORT IA   MOSUNNY   76  54  46 SE5       30.11F
CHICAGO IL     MOSUNNY   75  44  33 NE12      30.12F
EAU CLAIRE WI  PTSUNNY   79  51  37 SW10      30.05F
LA CROSSE WI   MOSUNNY   81  53  37 SW8       30.05F
$$

  *****  SOME NATIONAL WEATHER *****

CITY           SKY/WX    TMP DP  RH WIND       PRES   REMARKS
LA GUARDIA NY  NOT AVBL
RALEIGH NC     RAIN      84  72  67 NE6       29.86F FOG
ATLANTA GA     PTSUNNY   79  72  79 W5        29.97F
NEW ORLEANS LA PTSUNNY   89  72  56 NW3       29.97F HX  96
OKLAHOMA CITY  MOSUNNY   92  70  48 VRB5      30.04F HX  97
ALBUQUERQUE NM MOSUNNY   89  44  20 S14       30.25F
SALT LAKE CITY MOSUNNY   91  40  16 NW13G25   30.03S
LOS ANGELES CA MOSUNNY   80  61  52 W12       29.83F
BOISE ID       SUNNY     70  31  23 NW9G17    30.20F
SEATTLE WA     PTSUNNY   65  54  67 SW12G21   30.20R
$$

*** WEATHER ACROSS MANITOBA...SASKATCHEWAN AND ONTARIO ***
                ***ONTARIO***

CITY           SKY/WX    TMP DP  RH WIND       PRES   REMARKS
GERALDTON      CLOUDY    75  50  41 SW7       29.95F
THUNDER BAY    MOSUNNY   77  52  41 SW9       30.00F
SIOUX LOOKOUT  PTSUNNY   75  50  41 VRB2      29.99F
TORONTO        PTSUNNY   75  48  38 NE6       30.03F
BIG TROUT LK   SUNNY     73  55  53 S6        29.83F
PICKLE LAKE    PTSUNNY   77  46  33 W9        29.94F
DRYDEN         SUNNY     73  50  43 SW7       29.98F
KENORA         PTSUNNY   73  54  49 SE8       29.97F
$$
                *** MANITOBA***

CITY           SKY/WX    TMP DP  RH WIND       PRES   REMARKS
BRANDON        PTSUNNY   72  63  73 S14G21    29.88F
DAUPHIN        MOSUNNY   73  63  68 SE12G17   29.87S
ISLAND LAKE    MOSUNNY   81  50  34 W6        29.91F
PILOT MOUND      N/A     68  61  77 SE10        N/A
THE PAS        CLOUDY    77  54  44 SE20      29.83F
THOMPSON       MOSUNNY   82  50  32 S9        29.87F
WINNIPEG       PTSUNNY   73  59  60 SE10      29.93R
LYNN LAKE      SUNNY     81  46  30 S8G18     29.87F
CHURCHILL      MOSUNNY   63  50  63 NE9       29.92S
GILLAM         CLOUDY    79  55  44 W5        29.86F SMOKE
$$
                ***SASKATCHEWAN***

CITY           SKY/WX    TMP DP  RH WIND       PRES   REMARKS
ESTEVAN        MOSUNNY   81  66  61 SE7       29.79F
KINDERSLEY     PTSUNNY   66  52  59 W21G30    29.76S
LLOYDMINSTER   PTSUNNY   75  61  60 S12       29.67S
PRINCE ALBERT  LGT RAIN  66  64  94 SW14      29.75F
REGINA         PTSUNNY   79  63  57 S12G18    29.75F
YORKTON        PTSUNNY   72  61  68 SE9       29.82F
N. BATTLEFORD  MOSUNNY   79  64  61 S13G18    29.73R
LA RONGE       CLOUDY    72  59  64 E7        29.78F
SASKATOON      PTSUNNY   79  68  69 SE8       29.74F
SWIFT CURRENT  LGT RAIN  72  64  78 S7        29.76R
$$
NOTE: THESE ARE AUTOMATED STATIONS WITH LIMITED QUALITY CONTROL
      "FAIR" INDICATES FEW OR NO CLOUDS BELOW 12,000 FEET WITH NO
      SIGNIFICANT WEATHER AND/OR OBSTRUCTIONS TO VISIBILITY.
      SKY/WX - SKY CONDITION AND SIGNIFICANT WEATHER.
      TMP - AIR TEMPERATURE.    DP   - DEWPOINT TEMPERATURE.
      RH  - RELATIVE HUMIDITY.  PRES - PRESSURE.
      HX  - HEAT INDEX.         WCI  - WIND CHILL INDEX.
$



USA.gov is the U.S. government's official web portal to all federal, state and local government web resources and services.